Location: Bakhuizen
(52.8696°N, 5.4575°E)
Time: 13:57:17
(UTC+00:00)

USA 215 - Pass Details

Date: 11 May 2021
Orbit: 1100 x 1107 km, 123.0° (Epoch: 14 June)

Event Time Altitude Azimuth Distance (km) Brightness Sun altitude
Rises 21:28:03 0° 93° (E) 3,917 5.8 -13.9°
Reaches altitude 10° 21:30:32 10° 91° (E) 2,960 5.2 -14.1°
Maximum altitude 21:37:00 67° 10° (N) 1,188 3.6 -14.6°
Drops below altitude 10° 21:43:29 10° 290° (WNW) 2,966 6.2 -15.1°
Sets 21:45:58 0° 288° (WNW) 3,925 6.9 -15.2°
